Weather History for Kelso-Longview, WA

Change the Weather History Date:

Thursday, August 29, 2013

  Actual Average Record
Temperature  
Mean Temperature 68 °F -  
Max Temperature 73 °F 73 °F 93 °F (2007)
Min Temperature 62 °F 51 °F 51 °F (2007)
Cooling Degree Days 2    
Growing Degree Days 18 (Base 50)    
Moisture  
Dew Point 62 °F    
Average Humidity 86    
Maximum Humidity 94    
Minimum Humidity 73    
Precipitation  
Precipitation 0.13 in - - ()
Sea Level Pressure  
Sea Level Pressure 29.96 in    
Wind  
Wind Speed 3 mph (SSE)    
Max Wind Speed 14 mph    
Max Gust Speed 23 mph    
Visibility 10 miles    
Events      
Averages and records for this station are not official NWS values.
T = Trace of Precipitation, MM = Missing Value Source: NWS Daily Summary

Daily Weather History Graph

Daily Weather History Graph

Search for Another Location

Airport:

Trip Planner

Search our weather history database for the weather conditions in past years. The results will help you decide how hot, cold, wet, or windy it might be!

Date:

Astronomy

Aug. 29, 2013 Rise Set
Actual Time 6:28 AM PDT 7:55 PM PDT
Civil Twilight 5:57 AM PDT 8:26 PM PDT
Nautical Twilight 5:19 AM PDT 9:03 PM PDT
Astronomical Twilight 4:39 AM PDT 9:44 PM PDT
Moon 12:14 AM PDT (8/29) 3:38 PM PDT (8/29)
Length of Visible Light 14h 28m
Length of Day
13h 26m
Last Quarter, 37% of the Moon is Illuminated
Aug 29
Last Quarter
Sep 5
New
Sep 12
First Quarter
Sep 19
Full
Sep 26
Last Quarter

Hourly Weather History & Observations

Time (PDT) Temp. Dew Point Humidity Pressure Visibility Wind Dir Wind Speed Gust Speed Precip Events Conditions
12:15 AM 64.4 °F 60.8 °F 88% 29.95 in 10.0 mi Calm Calm - N/A   Overcast
12:35 AM - - N/A% 29.94 in 10.0 mi Calm Calm - N/A   Overcast
12:55 AM 64.4 °F 60.8 °F 88% 29.94 in 10.0 mi Calm Calm - N/A   Mostly Cloudy
1:15 AM - - N/A% 29.93 in 10.0 mi Calm Calm - N/A   Overcast
1:35 AM - - N/A% 29.94 in 10.0 mi Calm Calm - 0.01 in   Overcast
1:55 AM - - N/A% 29.94 in 9.0 mi Calm Calm - 0.03 in   Overcast
2:15 AM 64.4 °F 60.8 °F 88% 29.93 in 7.0 mi Calm Calm - 0.01 in   Overcast
2:35 AM - - N/A% 29.92 in 10.0 mi Calm Calm - 0.03 in   Mostly Cloudy
2:55 AM - - N/A% 29.92 in 10.0 mi Calm Calm - 0.03 in   Overcast
3:15 AM - - N/A% 29.90 in 10.0 mi Calm Calm - 0.01 in   Overcast
3:35 AM - - N/A% 29.90 in 10.0 mi Calm Calm - 0.01 in   Overcast
3:55 AM - - N/A% 29.90 in 10.0 mi Calm Calm - 0.01 in   Overcast
4:15 AM 64.4 °F 60.8 °F 88% 29.90 in 10.0 mi Calm Calm - N/A   Overcast
4:35 AM - - N/A% 29.90 in 10.0 mi Calm Calm - N/A   Overcast
4:55 AM - - N/A% 29.88 in 10.0 mi Calm Calm - N/A   Overcast
5:15 AM 62.6 °F 60.8 °F 94% 29.88 in 10.0 mi Calm Calm - N/A   Overcast
5:35 AM 62.6 °F 60.8 °F 94% 29.88 in 9.0 mi Calm Calm - 0.01 in   Overcast
5:55 AM 64.4 °F 60.8 °F 88% 29.88 in 10.0 mi Calm Calm - 0.01 in   Overcast
6:15 AM 62.6 °F 60.8 °F 94% 29.89 in 9.0 mi Calm Calm - N/A   Overcast
6:35 AM 62.6 °F 60.8 °F 94% 29.90 in 10.0 mi Calm Calm - N/A   Mostly Cloudy
6:55 AM 64.4 °F 60.8 °F 88% 29.89 in 5.0 mi NNE 3.5 mph - 0.01 in   Mostly Cloudy
7:15 AM 64.4 °F 60.8 °F 88% 29.89 in 8.0 mi Calm Calm - 0.01 in   Mostly Cloudy
7:35 AM 64.4 °F 60.8 °F 88% 29.90 in 5.0 mi South 4.6 mph - 0.01 in   Scattered Clouds
7:55 AM 64.4 °F 60.8 °F 88% 29.91 in 10.0 mi Calm Calm - 0.01 in   Scattered Clouds
8:15 AM 64.4 °F 60.8 °F 88% 29.91 in 10.0 mi Calm Calm - N/A   Mostly Cloudy
8:35 AM 64.4 °F 60.8 °F 88% 29.91 in 10.0 mi Calm Calm - N/A   Overcast
8:55 AM 64.4 °F 60.8 °F 88% 29.91 in 10.0 mi SE 5.8 mph - N/A   Overcast
9:15 AM 66.2 °F 62.6 °F 88% 29.92 in 10.0 mi SSE 4.6 mph - N/A   Overcast
9:35 AM 66.2 °F 62.6 °F 88% 29.93 in 10.0 mi SE 5.8 mph - 0.01 in   Overcast
9:55 AM - - N/A% 29.94 in 10.0 mi SSE 6.9 mph - 0.01 in   Overcast
10:15 AM 66.2 °F 62.6 °F 88% 29.94 in 10.0 mi SSE 10.4 mph 16.1 mph N/A   Overcast
10:35 AM 66.2 °F 62.6 °F 88% 29.94 in 10.0 mi SSE 11.5 mph 17.3 mph N/A   Overcast
10:55 AM 68.0 °F 62.6 °F 83% 29.96 in 10.0 mi SSE 11.5 mph 16.1 mph N/A   Overcast
11:15 AM 69.8 °F 64.4 °F 83% 29.96 in 10.0 mi SSE 10.4 mph 17.3 mph N/A   Mostly Cloudy
11:35 AM 69.8 °F 62.6 °F 78% 29.96 in 10.0 mi SSE 9.2 mph - N/A   Mostly Cloudy
11:55 AM 73.4 °F 64.4 °F 73% 29.95 in 10.0 mi SSE 11.5 mph 17.3 mph N/A   Mostly Cloudy
12:15 PM 73.4 °F 64.4 °F 73% 29.95 in 10.0 mi SE 10.4 mph 16.1 mph N/A   Scattered Clouds
12:35 PM - - N/A% 29.95 in 10.0 mi South 13.8 mph 21.9 mph N/A   Mostly Cloudy
12:55 PM - - N/A% 29.95 in 10.0 mi SSE 11.5 mph 17.3 mph N/A   Mostly Cloudy
1:15 PM - - N/A% 29.96 in 10.0 mi SSE 13.8 mph 21.9 mph N/A   Mostly Cloudy
1:35 PM - - N/A% 29.96 in 10.0 mi SSE 12.7 mph 21.9 mph N/A   Mostly Cloudy
1:55 PM - - N/A% 29.96 in 10.0 mi SE 9.2 mph 16.1 mph N/A   Overcast
2:15 PM - - N/A% 29.96 in 10.0 mi SSE 12.7 mph 20.7 mph N/A   Scattered Clouds
2:35 PM - - N/A% 29.95 in 10.0 mi South 12.7 mph 23.0 mph N/A   Scattered Clouds
2:55 PM - - N/A% 29.96 in 10.0 mi SSE 12.7 mph 21.9 mph N/A   Mostly Cloudy
3:15 PM - - N/A% 29.95 in 10.0 mi SSE 13.8 mph 20.7 mph N/A   Overcast
3:35 PM - - N/A% 29.96 in 10.0 mi South 12.7 mph 20.7 mph N/A   Overcast
3:55 PM - - N/A% 29.97 in 7.0 mi SSE 8.1 mph 19.6 mph 0.01 in   Overcast
4:15 PM - - N/A% 29.97 in 10.0 mi SSE 10.4 mph 21.9 mph N/A   Mostly Cloudy
4:35 PM - - N/A% 29.98 in 10.0 mi SSE 10.4 mph 18.4 mph N/A   Scattered Clouds
4:55 PM - - N/A% 29.98 in 10.0 mi SSE 10.4 mph 18.4 mph N/A   Clear
5:15 PM - - N/A% 29.99 in 10.0 mi South 8.1 mph - N/A   Mostly Cloudy
5:35 PM - - N/A% 29.99 in 10.0 mi South 10.4 mph - N/A   Overcast
5:55 PM - - N/A% 29.99 in 10.0 mi SSE 12.7 mph 18.4 mph 0.01 in   Mostly Cloudy
6:15 PM - - N/A% 30.00 in 10.0 mi South 10.4 mph 17.3 mph N/A   Scattered Clouds
6:35 PM - - N/A% 30.00 in 10.0 mi South 6.9 mph - N/A   Overcast
6:55 PM - - N/A% 30.00 in 10.0 mi SW 3.5 mph - N/A   Mostly Cloudy
7:15 PM - - N/A% 30.01 in 10.0 mi Calm Calm - N/A   Partly Cloudy
7:35 PM - - N/A% 30.02 in 10.0 mi Calm Calm - N/A   Mostly Cloudy
7:55 PM - - N/A% 30.02 in 10.0 mi SSE 3.5 mph - N/A   Mostly Cloudy
8:15 PM - - N/A% 30.02 in 10.0 mi South 3.5 mph - N/A   Scattered Clouds
8:35 PM - - N/A% 30.03 in 10.0 mi SSW 3.5 mph - N/A   Clear
8:55 PM - - N/A% 30.04 in 10.0 mi Calm Calm - N/A   Clear
9:15 PM 66.2 °F 60.8 °F 83% 30.06 in 10.0 mi Calm Calm - N/A   Scattered Clouds
9:35 PM 68.0 °F 62.6 °F 83% 30.06 in 10.0 mi Calm Calm - N/A   Overcast
9:55 PM 66.2 °F 62.6 °F 88% 30.08 in 10.0 mi Calm Calm - N/A   Overcast
10:15 PM 66.2 °F 60.8 °F 83% 30.08 in 10.0 mi Calm Calm - N/A   Overcast
10:35 PM 66.2 °F 60.8 °F 83% 30.08 in 10.0 mi Calm Calm - N/A   Overcast
10:55 PM - - N/A% 30.07 in 10.0 mi Calm Calm - N/A   Overcast
11:15 PM - - N/A% 30.08 in 10.0 mi ESE 3.5 mph - N/A   Overcast
11:35 PM - - N/A% 30.08 in 10.0 mi Calm Calm - N/A   Overcast
11:55 PM - - N/A% 30.09 in 10.0 mi South 3.5 mph - N/A   Overcast